| time (UTC) | temp C | wind direction | speed KPH | gust KPH | rain 1hr cm | rain 24hr cm | rain mn cm | humidity % | barometer mb |
| 20260503195917 | 18 | 270 | 8.0 | 14.5 | 0.00 | 0.00 | 0.00 | 62 | 1012.3 |
| 20260503194917 | 18 | 270 | 8.0 | 19.3 | 0.00 | 0.00 | 0.00 | 62 | 1012.3 |
| 20260503193916 | 18 | 270 | 6.4 | 11.3 | 0.00 | 0.00 | 0.00 | 61 | 1012.2 |
| 20260503192917 | 18 | 270 | 12.9 | 19.3 | 0.00 | 0.00 | 0.00 | 59 | 1011.9 |
| 20260503191917 | 19 | 270 | 8.0 | 12.9 | 0.00 | 0.00 | 0.00 | 58 | 1011.8 |
| 20260503190937 | 19 | 225 | 4.8 | 6.4 | 0.00 | 0.00 | 0.00 | 57 | 1011.6 |
| 20260503185917 | 19 | 225 | 3.2 | 4.8 | 0.00 | 0.00 | 0.00 | 56 | 1011.4 |
| 20260503184936 | 19 | 293 | 4.8 | 8.0 | 0.00 | 0.00 | 0.00 | 56 | 1011.2 |
| 20260503183917 | 20 | 270 | 8.0 | 14.5 | 0.00 | 0.00 | 0.00 | 54 | 1011.1 |
| 20260503182936 | 20 | 270 | 8.0 | 11.3 | 0.00 | 0.00 | 0.00 | 53 | 1011.1 |
| 20260503181916 | 20 | 293 | 6.4 | 12.9 | 0.00 | 0.00 | 0.00 | 50 | 1010.8 |
| 20260503180917 | 21 | 293 | 16.1 | 22.5 | 0.00 | 0.00 | 0.00 | 48 | 1010.8 |
| 20260503175917 | 21 | 270 | 8.0 | 11.3 | 0.00 | 0.00 | 0.00 | 47 | 1010.7 |
| 20260503174917 | 21 | 270 | 12.9 | 17.7 | 0.00 | 0.00 | 0.00 | 46 | 1010.5 |
| 20260503173917 | 22 | 293 | 9.7 | 12.9 | 0.00 | 0.00 | 0.00 | 45 | 1010.3 |
| 20260503172917 | 22 | 248 | 11.3 | 16.1 | 0.00 | 0.00 | 0.00 | 44 | 1010.2 |
| 20260503171937 | 22 | 270 | 9.7 | 14.5 | 0.00 | 0.00 | 0.00 | 43 | 1010.1 |
| 20260503170917 | 22 | 270 | 8.0 | 11.3 | 0.00 | 0.00 | 0.00 | 42 | 1010.1 |
| 20260503150916 | 26 | 225 | 20.9 | 30.6 | 0.00 | 0.00 | 0.00 | 32 | 1009.6 |
| 20260503130916 | 26 | 270 | 6.4 | 9.7 | 0.00 | 0.00 | 0.00 | 33 | 1010.6 |
| 20260503080917 | 20 | 225 | 1.6 | 4.8 | 0.00 | 0.00 | 0.00 | 62 | 1013.0 |
| 20260503072916 | 20 | 113 | 4.8 | 8.0 | 0.00 | 0.00 | 0.00 | 64 | 1013.2 |
| 20260503071916 | 19 | 135 | 6.4 | 8.0 | 0.00 | 0.00 | 0.00 | 64 | 1013.1 |
| 20260503070916 | 18 | 90 | 3.2 | 3.2 | 0.00 | 0.00 | 0.00 | 67 | 1013.1 |
| 20260503054916 | 15 | 0.0 | 0.0 | 0.00 | 0.00 | 0.00 | 85 | 1013.5 | |
| 20260503053916 | 14 | 0.0 | 0.0 | 0.00 | 0.00 | 0.00 | 88 | 1013.4 | |
| 20260503052937 | 13 | 0.0 | 1.6 | 0.00 | 0.00 | 0.00 | 90 | 1013.5 | |
| 20260503051916 | 12 | 135 | 4.8 | 8.0 | 0.00 | 0.00 | 0.00 | 91 | 1013.3 |
| 20260503050916 | 12 | 135 | 3.2 | 6.4 | 0.00 | 0.00 | 0.00 | 89 | 1013.5 |
| 20260503045916 | 11 | 135 | 1.6 | 1.6 | 0.00 | 0.00 | 0.00 | 90 | 1013.7 |
| 20260503044936 | 11 | 0.0 | 0.0 | 0.00 | 0.00 | 0.00 | 91 | 1013.7 | |
| 20260503043917 | 11 | 113 | 1.6 | 1.6 | 0.00 | 0.00 | 0.00 | 90 | 1013.9 |
| 20260503042916 | 11 | 0.0 | 0.0 | 0.00 | 0.00 | 0.00 | 90 | 1014.0 | |
| 20260503041936 | 11 | 0.0 | 0.0 | 0.00 | 0.00 | 0.00 | 90 | 1014.0 | |
| 20260503040916 | 11 | 135 | 1.6 | 1.6 | 0.00 | 0.00 | 0.00 | 89 | 1014.0 |
| 20260503035916 | 11 | 0.0 | 0.0 | 0.00 | 0.00 | 0.00 | 89 | 1014.0 | |
| 20260503034937 | 11 | 0.0 | 0.0 | 0.00 | 0.00 | 0.00 | 89 | 1014.0 | |
| 20260503033917 | 11 | 0.0 | 0.0 | 0.00 | 0.00 | 0.00 | 89 | 1013.9 | |
| 20260503032917 | 11 | 0.0 | 0.0 | 0.00 | 0.00 | 0.00 | 88 | 1013.9 | |
| 20260503031917 | 11 | 0.0 | 0.0 | 0.00 | 0.00 | 0.00 | 88 | 1013.9 | |
| 20260503030917 | 11 | 0.0 | 0.0 | 0.00 | 0.00 | 0.00 | 88 | 1013.9 | |
| 20260503025916 | 11 | 0.0 | 1.6 | 0.00 | 0.00 | 0.00 | 87 | 1014.0 | |
| 20260503024917 | 12 | 0.0 | 0.0 | 0.00 | 0.00 | 0.00 | 86 | 1013.9 | |
| 20260503023917 | 12 | 0.0 | 0.0 | 0.00 | 0.00 | 0.00 | 85 | 1013.9 | |
| 20260503022917 | 12 | 0.0 | 0.0 | 0.00 | 0.00 | 0.00 | 84 | 1014.1 | |
| 20260503021916 | 13 | 0.0 | 1.6 | 0.00 | 0.00 | 0.00 | 81 | 1014.1 | |
| 20260503020916 | 13 | 0.0 | 1.6 | 0.00 | 0.00 | 0.00 | 80 | 1014.3 | |
| 20260503015916 | 14 | 0.0 | 1.6 | 0.00 | 0.00 | 0.00 | 79 | 1014.4 | |
| 20260503014917 | 14 | 135 | 1.6 | 1.6 | 0.00 | 0.00 | 0.00 | 78 | 1014.4 |
| 20260503013937 | 15 | 0.0 | 0.0 | 0.00 | 0.00 | 0.00 | 76 | 1014.3 | |
| 20260503012916 | 15 | 135 | 1.6 | 1.6 | 0.00 | 0.00 | 0.00 | 75 | 1014.3 |
| 20260503011916 | 15 | 0.0 | 1.6 | 0.00 | 0.00 | 0.00 | 75 | 1014.4 | |
| 20260503010936 | 15 | 0.0 | 0.0 | 0.00 | 0.00 | 0.00 | 74 | 1014.4 | |
| 20260503005916 | 15 | 90 | 1.6 | 3.2 | 0.00 | 0.00 | 0.00 | 73 | 1014.3 |
| 20260503004937 | 16 | 0.0 | 1.6 | 0.00 | 0.00 | 0.00 | 73 | 1014.5 | |
| 20260503003917 | 16 | 68 | 3.2 | 6.4 | 0.00 | 0.00 | 0.00 | 74 | 1014.6 |
| 20260503002916 | 15 | 68 | 3.2 | 3.2 | 0.00 | 0.00 | 0.00 | 75 | 1014.8 |
| 20260503001916 | 16 | 0.0 | 0.0 | 0.00 | 0.00 | 0.00 | 74 | 1015.2 | |
| 20260503000916 | 16 | 0.0 | 0.0 | 0.00 | 0.00 | 0.00 | 73 | 1015.6 | |
| 20260502235916 | 16 | 270 | 1.6 | 4.8 | 0.00 | 0.00 | 0.00 | 73 | 1016.0 |
| 20260502234916 | 16 | 270 | 3.2 | 6.4 | 0.00 | 0.00 | 0.00 | 73 | 1015.9 |
| 20260502233916 | 16 | 338 | 4.8 | 6.4 | 0.00 | 0.00 | 0.00 | 73 | 1015.9 |
| 20260502232916 | 16 | 270 | 6.4 | 9.7 | 0.00 | 0.00 | 0.00 | 74 | 1015.9 |
| 20260502231916 | 16 | 293 | 8.0 | 12.9 | 0.00 | 0.00 | 0.00 | 74 | 1015.8 |
| 20260502230916 | 17 | 293 | 4.8 | 9.7 | 0.00 | 0.00 | 0.00 | 74 | 1015.8 |
| 20260502225935 | 17 | 270 | 1.6 | 6.4 | 0.00 | 0.00 | 0.00 | 74 | 1015.7 |
| 20260502224916 | 16 | 270 | 4.8 | 6.4 | 0.00 | 0.00 | 0.00 | 76 | 1015.6 |
| 20260502223916 | 16 | 315 | 3.2 | 4.8 | 0.00 | 0.00 | 0.00 | 77 | 1015.3 |
| 20260502222936 | 15 | 135 | 1.6 | 1.6 | 0.00 | 0.00 | 0.00 | 80 | 1015.1 |
| 20260502221916 | 15 | 0.0 | 1.6 | 0.00 | 0.00 | 0.00 | 80 | 1015.0 | |
| 20260502220916 | 15 | 0.0 | 1.6 | 0.00 | 0.00 | 0.00 | 79 | 1015.0 | |
| 20260502215917 | 16 | 0.0 | 0.0 | 0.00 | 0.00 | 0.00 | 78 | 1015.0 | |
| 20260502214917 | 16 | 0.0 | 0.0 | 0.00 | 0.00 | 0.00 | 76 | 1015.1 | |
| 20260502213917 | 16 | 0.0 | 0.0 | 0.00 | 0.00 | 0.00 | 76 | 1015.1 | |
| 20260502212917 | 16 | 0.0 | 0.0 | 0.00 | 0.00 | 0.00 | 75 | 1015.2 | |
| 20260502211917 | 16 | 135 | 1.6 | 3.2 | 0.00 | 0.00 | 0.00 | 75 | 1015.2 |
| 20260502210917 | 16 | 113 | 1.6 | 3.2 | 0.00 | 0.00 | 0.00 | 75 | 1015.3 |
| 20260502205917 | 17 | 135 | 1.6 | 3.2 | 0.00 | 0.00 | 0.00 | 75 | 1015.4 |
| 20260502204937 | 17 | 135 | 1.6 | 3.2 | 0.00 | 0.00 | 0.00 | 73 | 1015.5 |
| 20260502203917 | 17 | 0.0 | 0.0 | 0.00 | 0.00 | 0.00 | 70 | 1015.5 | |
| 20260502202917 | 18 | 0.0 | 0.0 | 0.00 | 0.00 | 0.00 | 69 | 1015.5 | |
| 20260502201917 | 18 | 0.0 | 0.0 | 0.00 | 0.00 | 0.00 | 68 | 1015.5 | |
| 20260502200917 | 18 | 0.0 | 0.0 | 0.00 | 0.00 | 0.00 | 66 | 1015.6 |